Location: Catacaguana
(10.4120°N, 66.7591°W)
Time: 06:29:28
(UTC+00:00)

GPS 2-14 Rocket1 - Pass Details

Date: 27 May 2022
Orbit: 467 x 526 km, 20.7° (Epoch: 26 June)

Event Time Altitude Azimuth Distance (km) Brightness Sun altitude
Rises 23:57:52 0° 283° (WNW) 2,501 7.7 -17.4°
Reaches altitude 10° 00:00:06 10° 279° (W) 1,617 6.3 -17.9°
Maximum altitude 00:03:44 54° 201° (SSW) 569 2.8 -18.7°
Enters shadow 00:04:21 47° 164° (SSE) 620 2.7 -18.8°
